Location: ??????
(42.0089°N, 44.3281°E)
Time: 11:57:35
(UTC+00:00)

Cosmos 2251 Rocket - Pass Details

Date: 29 May 2022
Orbit: 764 x 791 km, 74.0° (Epoch: 01 July)

Event Time Altitude Azimuth Distance (km) Brightness Sun altitude
Rises 23:44:39 0° 333° (NNW) 3,251 7.1 -15.8°
Reaches altitude 10° 23:47:08 10° 326° (NNW) 2,323 6.2 -15.5°
Maximum altitude 23:52:03 41° 257° (WSW) 1,110 4.0 -14.9°
Enters shadow 23:55:27 19° 197° (SSW) 1,791 4.9 -14.5°
